Location: Hylvaty SDH
(49.9612°N, 16.4057°E)
Time: 20:33:21
(UTC+01:00)

Vanguard 1 Rocket - Pass Details

Date: 04 October 2020
Orbit: 656 x 4221 km, 34.3° (Epoch: 30 October)

Event Time Altitude Azimuth Distance (km) Brightness Sun altitude
Rises 23:11:25 0° 274° (W) 6,511 12.1 -40.9°
Reaches altitude 10° 23:16:06 10° 263° (W) 5,965 11.7 -41.3°
Maximum altitude 23:31:35 29° 214° (SW) 5,603 11.0 -42.4°
Enters shadow 23:31:58 29° 213° (SSW) 5,621 11.0 -42.4°
Drops below altitude 10° 23:50:58 10° 166° (SSE) 7,384 - -43.5°
Sets 23:57:58 0° 156° (SSE) 8,241 - -43.9°
